Time,TemperatureF,DewpointF,PressureIn,WindDirection,WindDirectionDegrees,WindSpeedMPH,WindSpeedGustMPH,Humidity,HourlyPrecipIn,Conditions,Clouds,dailyrainin,SoftwareType,DateUTC
2017-07-25 00:00:00,60.8,59.7,29.84,NNW,346,0.0,2.0,96,0.00,,,0.00,VWS V12.08,2017-07-25 04:00:00,
2017-07-25 00:13:00,60.8,60.0,29.84,NNE,16,0.0,0.0,97,0.00,,,0.00,VWS V12.08,2017-07-25 04:13:00,
2017-07-25 00:28:00,60.8,60.0,29.85,SW,214,0.0,3.0,97,0.00,,,0.00,VWS V12.08,2017-07-25 04:28:00,
2017-07-25 00:30:00,60.8,60.0,29.85,SW,214,1.0,3.0,97,0.00,,,0.00,VWS V12.08,2017-07-25 04:30:00,
2017-07-25 00:43:00,60.8,60.0,29.85,South,182,0.0,2.0,97,0.00,,,0.00,VWS V12.08,2017-07-25 04:43:00,
2017-07-25 00:58:00,60.8,60.0,29.87,NW,317,0.0,2.0,97,0.01,,,0.01,VWS V12.08,2017-07-25 04:58:00,
2017-07-25 01:00:00,60.8,60.0,29.87,NW,317,0.0,2.0,97,0.01,,,0.01,VWS V12.08,2017-07-25 05:00:00,
2017-07-25 01:13:00,60.8,60.0,29.87,SSW,193,0.0,4.0,97,0.01,,,0.01,VWS V12.08,2017-07-25 05:13:00,
2017-07-25 01:28:00,60.7,59.8,29.87,SSW,209,2.0,4.0,97,0.01,,,0.01,VWS V12.08,2017-07-25 05:28:00,
2017-07-25 01:30:00,60.7,59.8,29.87,SSW,207,2.0,4.0,97,0.01,,,0.01,VWS V12.08,2017-07-25 05:30:00,
2017-07-25 01:43:00,60.6,59.8,29.88,NW,306,1.0,0.0,97,0.01,,,0.01,VWS V12.08,2017-07-25 05:43:00,
2017-07-25 01:58:00,60.4,59.3,29.88,East,93,0.0,3.0,96,0.01,,,0.01,VWS V12.08,2017-07-25 05:58:00,
2017-07-25 02:13:00,60.2,59.3,29.87,South,188,0.0,3.0,97,0.00,,,0.01,VWS V12.08,2017-07-25 06:13:00,
2017-07-25 02:28:00,60.0,59.2,29.88,SSW,200,0.0,3.0,97,0.00,,,0.01,VWS V12.08,2017-07-25 06:28:00,
2017-07-25 02:43:00,59.8,58.7,29.88,South,172,1.0,3.0,96,0.00,,,0.01,VWS V12.08,2017-07-25 06:43:00,
2017-07-25 02:58:00,59.6,58.5,29.89,SSW,196,0.0,3.0,96,0.00,,,0.01,VWS V12.08,2017-07-25 06:58:00,
2017-07-25 03:14:00,59.6,58.8,29.89,South,170,1.0,2.0,97,0.00,,,0.01,VWS V12.08,2017-07-25 07:14:00,
2017-07-25 03:29:00,59.5,58.7,29.90,SSE,156,0.0,2.0,97,0.00,,,0.01,VWS V12.08,2017-07-25 07:29:00,
2017-07-25 03:45:00,59.4,58.5,29.90,WNW,287,0.0,4.0,97,0.00,,,0.01,VWS V12.08,2017-07-25 07:45:00,
2017-07-25 04:00:00,59.3,58.5,29.89,South,176,0.0,4.0,97,0.00,,,0.01,VWS V12.08,2017-07-25 08:00:00,
2017-07-25 04:14:00,59.1,58.0,29.90,ESE,119,0.0,2.0,96,0.00,,,0.01,VWS V12.08,2017-07-25 08:14:00,
2017-07-25 04:29:00,59.1,58.2,29.91,SSE,158,0.0,2.0,97,0.00,,,0.01,VWS V12.08,2017-07-25 08:29:00,
2017-07-25 04:44:00,59.1,58.2,29.92,NNW,328,0.0,2.0,97,0.00,,,0.01,VWS V12.08,2017-07-25 08:44:00,
2017-07-25 04:59:00,59.1,58.2,29.91,WSW,252,0.0,2.0,97,0.00,,,0.01,VWS V12.08,2017-07-25 08:59:00,
2017-07-25 05:14:00,59.2,58.3,29.92,South,182,0.0,2.0,97,0.00,,,0.01,VWS V12.08,2017-07-25 09:14:00,
2017-07-25 05:29:00,59.1,58.2,29.93,South,182,0.0,2.0,97,0.00,,,0.01,VWS V12.08,2017-07-25 09:29:00,
2017-07-25 05:43:00,59.0,58.2,29.94,South,182,0.0,2.0,97,0.00,,,0.01,VWS V12.08,2017-07-25 09:43:00,
2017-07-25 05:58:00,59.1,58.2,29.95,South,182,0.0,2.0,97,0.00,,,0.01,VWS V12.08,2017-07-25 09:58:00,
2017-07-25 06:00:00,59.1,58.2,29.95,South,182,0.0,2.0,97,0.00,,,0.01,VWS V12.08,2017-07-25 10:00:00,
2017-07-25 06:13:00,59.1,58.2,29.95,South,182,0.0,0.0,97,0.00,,,0.01,VWS V12.08,2017-07-25 10:13:00,
2017-07-25 06:28:00,59.2,58.3,29.95,South,182,0.0,0.0,97,0.00,,,0.01,VWS V12.08,2017-07-25 10:28:00,
2017-07-25 06:43:00,59.3,58.5,29.95,South,182,0.0,0.0,97,0.00,,,0.01,VWS V12.08,2017-07-25 10:43:00,
2017-07-25 06:58:00,59.3,58.5,29.96,South,182,0.0,0.0,97,0.00,,,0.01,VWS V12.08,2017-07-25 10:58:00,
2017-07-25 07:13:00,59.5,58.7,29.96,South,182,0.0,0.0,97,0.00,,,0.01,VWS V12.08,2017-07-25 11:13:00,
2017-07-25 07:28:00,59.6,58.8,29.97,South,182,0.0,0.0,97,0.00,,,0.01,VWS V12.08,2017-07-25 11:28:00,
2017-07-25 07:43:00,59.7,58.8,29.97,SSW,207,0.0,0.0,97,0.00,,,0.01,VWS V12.08,2017-07-25 11:43:00,
2017-07-25 07:58:00,59.8,59.0,29.98,SSW,207,0.0,0.0,97,0.00,,,0.01,VWS V12.08,2017-07-25 11:58:00,
2017-07-25 08:14:00,60.2,59.3,29.99,SSW,207,0.0,0.0,97,0.00,,,0.01,VWS V12.08,2017-07-25 12:14:00,
2017-07-25 08:28:00,60.5,59.7,30.00,SSW,213,0.0,0.0,97,0.00,,,0.01,VWS V12.08,2017-07-25 12:28:00,
2017-07-25 08:43:00,60.7,59.8,30.00,SSW,213,0.0,0.0,97,0.00,,,0.01,VWS V12.08,2017-07-25 12:43:00,
2017-07-25 08:58:00,60.9,59.8,30.00,SSE,165,0.0,4.0,96,0.00,,,0.01,VWS V12.08,2017-07-25 12:58:00,
2017-07-25 09:14:00,61.1,59.7,30.00,SW,217,2.0,3.0,95,0.00,,,0.01,VWS V12.08,2017-07-25 13:14:00,
2017-07-25 09:29:00,61.2,59.8,30.01,NW,322,0.0,3.0,95,0.00,,,0.01,VWS V12.08,2017-07-25 13:29:00,
2017-07-25 09:44:00,61.3,59.6,30.02,West,263,0.0,2.0,94,0.00,,,0.01,VWS V12.08,2017-07-25 13:44:00,
2017-07-25 09:59:00,61.5,59.8,30.01,NNW,334,0.0,2.0,94,0.00,,,0.01,VWS V12.08,2017-07-25 13:59:00,
2017-07-25 10:14:00,61.7,59.7,30.02,NNW,339,1.0,3.0,93,0.00,,,0.01,VWS V12.08,2017-07-25 14:14:00,
2017-07-25 10:29:00,61.6,59.3,30.03,SW,229,0.0,4.0,92,0.00,,,0.01,VWS V12.08,2017-07-25 14:29:00,
2017-07-25 10:43:00,61.8,59.5,30.04,SW,229,0.0,1.0,92,0.00,,,0.01,VWS V12.08,2017-07-25 14:43:00,
2017-07-25 10:58:00,61.9,59.5,30.04,SW,229,0.0,2.0,92,0.00,,,0.01,VWS V12.08,2017-07-25 14:58:00,
2017-07-25 11:14:00,62.2,59.5,30.04,WSW,241,0.0,2.0,91,0.00,,,0.01,VWS V12.08,2017-07-25 15:14:00,
2017-07-25 11:28:00,62.3,59.6,30.03,WNW,300,0.0,2.0,91,0.00,,,0.01,VWS V12.08,2017-07-25 15:28:00,